Погода в Борщеве

Украина / Тернопольская область     48°48′04″N   26°02′32″E
темп.,
°C
ветер,
м/с
пор.,
м/с
влажн.,
%
обл.,
%
осадки,
мм/ч
давл.,
гПа
погр.,
м
16 мая, пн
пн1600:00+10ссз22825 0.0 102020
03:00+8сз228658 0.0 102016
06:00+8сз22868 0.0 102012
09:00+14сз2265100 0.0 1020381
12:00+17сз3550100 0.0 10201753
15:00+20сз564499 0.0 10192017
18:00+19с45499 0.0 10181580
21:00+13ссв2273100 0.0 101912
17 мая, вт
вт1700:00+12ссв227485 0.0 101924
03:00+10ссв1185100 0.0 101910
06:00+10ссв118183 0.0 101810
09:00+15сз016872 0.0 1018409
12:00+18ссз3458100 0.1 10171499
15:00+19ссз564689 0.1 10152018
18:00+18ссз665145 0.0 10151923
21:00+12с71251100 0.0 1018622
18 мая, ср
ср1800:00+9ссз375570 0.0 1020192
03:00+6сз38647 0.0 1021155
06:00+4сз4116812 0.0 1022285
09:00+9ссз69570 0.0 10241108
12:00+13ссз79425 0.0 10251794
15:00+15ссз79415 0.0 10251893
18:00+14ссз78475 0.0 10251722
21:00+9сз34680 0.0 102751
19 мая, чт
чт1900:00+7зсз33790 0.0 102943
03:00+5зсз23810 0.0 102937
06:00+5зсз22835 0.0 103022
09:00+12з34585 0.0 1030449
12:00+17зсз34395 0.0 10281199
15:00+20зсз343388 0.0 10271411
18:00+20сз353995 0.0 10251150
21:00+13зсз115685 0.0 102511
20 мая, пт
пт2000:00+11юз116157 0.0 102510
03:00+10зюз116723 0.0 102410
06:00+9юз117556 0.0 102410
09:00+15юз3355100 0.0 1022267
12:00+20юз4541100 0.0 1020739
15:00+23з4737100 0.0 10181461
18:00+23зсз6105297 0.0 1016962
21:00+17зсз5157617 0.3 1016371